Terminal Aerodrome Forecast
Issued by NWS

Home | Current Version | Previous Version | Text Only | Print | Product List | Glossary On
Versions: 1 2 3 4 5 6 7 8 9 10 11 12 13 14 15 16 17 18 19 20 21 22 23 24 25 26 27 28 29 30 31 32 33 34 35 36 37 38 39 40 41 42 43 44 45 46 47 48 49
000
FTUS44 KHGX 281120
TAFIAH
TAF
KIAH 281120Z 2812/2918 VRB05KT P6SM FEW250
     FM282100 16006KT P6SM FEW070
     FM290300 VRB05KT P6SM SCT060 SCT250
     FM291400 02005KT P6SM SCT040 SCT250=

USA.gov is the U.S. government's official web portal to all federal, state and local government web resources and services.